{"data":{"norad_id":67168,"intl_designator":"2025-303F","name":"STARLINK-35903","alt_names":[],"object_type":"PAYLOAD","status":"ACTIVE","operator":null,"country":"US","launch_date":"2025-12-17","launch_site_code":"AFETR","launch_vehicle":null,"mission":null,"orbit_class":"UNKNOWN","rcs_meters":null,"size_class":null,"mass_kg":null,"dimensions":null,"purposes":["comms"],"wikipedia_slug":null,"has_3d_model":false,"image_url":null,"decayed_at":null,"tle_current":{"epoch":"2026-05-24T23:19:13.152000Z","epoch_age_seconds":73631,"freshness":"FRESH","line1":"1 67168U 25303F   26144.97168000  .00015264  00000+0  56290-3 0  9991","line2":"2 67168  43.0008 239.7336 0001134 278.7396  81.3328 15.27589591 24406","mean_motion":15.27589591,"eccentricity":0.0001134,"inclination_deg":43.0008,"raan_deg":239.7336,"arg_perigee_deg":278.7396,"mean_anomaly_deg":81.3328,"bstar":0.0005629,"rev_number":2440,"period_min":94.266156858096,"perigee_km":482.24232203898,"apogee_km":483.79843253215,"semimajor_km":6861.1573772856,"source":"CELESTRAK","updated_at":"2026-05-25T13:38:21.480465Z"}}}